Weather History for KWWD - October, 2013

Change the Weather History Date:

Wednesday, October 2, 2013

  Actual Average Record
Temperature  
Mean Temperature 70 °F -  
Max Temperature 80 °F 68 °F 82 °F (2002)
Min Temperature 60 °F 52 °F 39 °F (1997)
Cooling Degree Days 5    
Growing Degree Days 20 (Base 50)    
Moisture  
Dew Point 60 °F    
Average Humidity 71    
Maximum Humidity 94    
Minimum Humidity 51    
Precipitation  
Precipitation 0.00 in - - ()
Sea Level Pressure  
Sea Level Pressure 30.03 in    
Wind  
Wind Speed 6 mph (West)    
Max Wind Speed 12 mph    
Max Gust Speed -    
Visibility 9 miles    
Events      
Averages and records for this station are not official NWS values.
T = Trace of Precipitation, MM = Missing Value Source: NWS Daily Summary

Daily Weather History Graph

Daily Weather History Graph

Search for Another Location

Airport or City:

Trip Planner

Search our weather history database for the weather conditions in past years. The results will help you decide how hot, cold, wet, or windy it might be!

Date:

Astronomy

Oct. 02, 2013 Rise Set
Actual Time 6:56 AM EDT 6:40 PM EDT
Civil Twilight 6:30 AM EDT 7:06 PM EDT
Nautical Twilight 5:59 AM EDT 7:37 PM EDT
Astronomical Twilight 5:27 AM EDT 8:08 PM EDT
Moon 4:28 AM EDT (10/2) 5:14 PM EDT (10/2)
Length of Visible Light 12h 36m
Length of Day
11h 43m
Waning Crescent, 6% of the Moon is Illuminated
Oct 2
Waning Crescent
Oct 4
New
Oct 11
First Quarter
Oct 18
Full
Oct 26
Last Quarter

Hourly Weather History & Observations

Time (EDT) Temp. Heat Index Dew Point Humidity Pressure Visibility Wind Dir Wind Speed Gust Speed Precip Events Conditions
12:15 AM 66.2 °F - 59.0 °F 78% 30.01 in 10.0 mi WSW 5.8 mph - N/A   Partly Cloudy
12:35 AM 66.2 °F - 59.0 °F 78% 30.01 in 10.0 mi WSW 8.1 mph - N/A   Mostly Cloudy
12:55 AM 66.2 °F - 59.0 °F 78% 30.01 in 10.0 mi WSW 5.8 mph - N/A   Mostly Cloudy
1:15 AM 66.2 °F - 59.0 °F 78% 30.01 in 10.0 mi WSW 6.9 mph - N/A   Scattered Clouds
1:35 AM 66.2 °F - 59.0 °F 78% 30.01 in 10.0 mi WSW 6.9 mph - N/A   Scattered Clouds
1:55 AM 66.2 °F - 59.0 °F 78% 30.01 in 10.0 mi WSW 6.9 mph - N/A   Partly Cloudy
2:15 AM 66.2 °F - 60.8 °F 83% 30.01 in 10.0 mi WSW 6.9 mph - N/A   Partly Cloudy
2:35 AM 66.2 °F - 60.8 °F 83% 30.01 in 10.0 mi West 5.8 mph - N/A   Partly Cloudy
2:55 AM 64.4 °F - 60.8 °F 88% 30.01 in 10.0 mi West 5.8 mph - N/A   Partly Cloudy
3:15 AM 64.4 °F - 60.8 °F 88% 30.01 in 10.0 mi West 4.6 mph - N/A   Clear
3:35 AM 64.4 °F - 60.8 °F 88% 30.00 in 10.0 mi West 4.6 mph - N/A   Clear
3:55 AM 64.4 °F - 60.8 °F 88% 30.01 in 10.0 mi West 3.5 mph - N/A   Clear
4:15 AM 64.4 °F - 60.8 °F 88% 30.01 in 10.0 mi Calm Calm - N/A   Clear
4:35 AM 64.4 °F - 60.8 °F 88% 30.01 in 10.0 mi West 3.5 mph - N/A   Clear
4:55 AM 64.4 °F - 60.8 °F 88% 30.01 in 10.0 mi Calm Calm - N/A   Clear
5:15 AM 64.4 °F - 60.8 °F 88% 30.02 in 10.0 mi WNW 3.5 mph - N/A   Clear
5:35 AM 62.6 °F - 59.0 °F 88% 30.02 in 9.0 mi West 3.5 mph - N/A   Clear
5:55 AM 62.6 °F - 59.0 °F 88% 30.02 in 8.0 mi West 4.6 mph - N/A   Clear
6:15 AM 62.6 °F - 60.8 °F 94% 30.02 in 8.0 mi Calm Calm - N/A   Clear
6:35 AM 60.8 °F - 57.2 °F 88% 30.02 in 4.0 mi Calm Calm - N/A   Clear
6:55 AM 60.8 °F - 57.2 °F 88% 30.03 in 4.0 mi West 3.5 mph - N/A   Clear
7:15 AM 62.6 °F - 59.0 °F 88% 30.04 in 5.0 mi West 3.5 mph - N/A   Clear
7:35 AM 62.6 °F - 60.8 °F 94% 30.04 in 7.0 mi WNW 4.6 mph - N/A   Clear
7:55 AM 64.4 °F - 60.8 °F 88% 30.05 in 8.0 mi WNW 4.6 mph - N/A   Clear
8:15 AM - - - N/A% - - North - - N/A   Unknown
8:35 AM - - - N/A% - - North - - N/A   Unknown
8:55 AM - - - N/A% - - North - - N/A   Unknown
9:15 AM - - - N/A% - - North - - N/A   Unknown
9:35 AM 69.8 °F - 60.8 °F 73% 30.07 in 10.0 mi WNW 3.5 mph - N/A   Unknown
9:55 AM 71.6 °F - 60.8 °F 69% 30.07 in 10.0 mi NW 6.9 mph - N/A   Clear
10:15 AM 71.6 °F - 60.8 °F 69% 30.07 in 10.0 mi NW 6.9 mph - N/A   Clear
10:35 AM 71.6 °F - 60.8 °F 69% 30.07 in 10.0 mi NW 5.8 mph - N/A   Clear
10:55 AM 73.4 °F - 60.8 °F 65% 30.07 in 10.0 mi WNW 9.2 mph - N/A   Clear
11:15 AM 73.4 °F - 60.8 °F 65% 30.07 in 10.0 mi WNW 9.2 mph - N/A   Clear
11:35 AM 75.2 °F - 60.8 °F 61% 30.06 in 10.0 mi WNW 9.2 mph - N/A   Clear
11:55 AM 75.2 °F - 60.8 °F 61% 30.06 in 10.0 mi West 11.5 mph - N/A   Clear
12:15 PM 77.0 °F - 60.8 °F 57% 30.06 in 10.0 mi West 8.1 mph - N/A   Clear
12:35 PM 78.8 °F - 60.8 °F 54% 30.05 in 2.5 mi West 10.4 mph - N/A   Clear
12:55 PM 78.8 °F - 60.8 °F 54% 30.05 in 10.0 mi West 9.2 mph - N/A   Clear
1:15 PM 78.8 °F - 60.8 °F 54% 30.04 in 10.0 mi West 8.1 mph - N/A   Clear
1:35 PM 78.8 °F - 60.8 °F 54% 30.04 in 10.0 mi West 9.2 mph - N/A   Clear
1:55 PM 80.6 °F 81.5 °F 60.8 °F 51% 30.03 in 10.0 mi WNW 9.2 mph - N/A   Clear
2:15 PM 80.6 °F 81.5 °F 60.8 °F 51% 30.02 in 10.0 mi West 8.1 mph - N/A   Clear
2:35 PM 80.6 °F 81.5 °F 60.8 °F 51% 30.02 in 10.0 mi West 8.1 mph - N/A   Clear
2:55 PM 80.6 °F 81.5 °F 60.8 °F 51% 30.01 in 10.0 mi West 6.9 mph - N/A   Clear
3:15 PM 80.6 °F 81.5 °F 60.8 °F 51% 30.01 in 10.0 mi WNW 5.8 mph - N/A   Clear
3:35 PM 80.6 °F 81.5 °F 60.8 °F 51% 30.00 in 10.0 mi WNW 5.8 mph - N/A   Clear
3:55 PM 80.6 °F 81.5 °F 60.8 °F 51% 30.00 in 10.0 mi WNW 5.8 mph - N/A   Clear
4:15 PM 78.8 °F - 60.8 °F 54% 30.00 in 10.0 mi West 6.9 mph - N/A   Clear
4:35 PM 78.8 °F - 60.8 °F 54% 30.00 in 10.0 mi WNW 5.8 mph - N/A   Clear
4:55 PM 78.8 °F - 60.8 °F 54% 30.00 in 4.0 mi West 4.6 mph - N/A   Clear
5:15 PM 78.8 °F - 60.8 °F 54% 30.00 in 10.0 mi West 5.8 mph - N/A   Clear
5:35 PM 78.8 °F - 60.8 °F 54% 30.00 in 10.0 mi WSW 6.9 mph - N/A   Clear
5:55 PM 77.0 °F - 60.8 °F 57% 30.01 in 10.0 mi SSW 6.9 mph - N/A   Clear
6:15 PM 73.4 °F - 60.8 °F 65% 30.01 in 10.0 mi SSW 6.9 mph - N/A   Clear
6:35 PM 71.6 °F - 59.0 °F 64% 30.02 in 10.0 mi SSW 5.8 mph - N/A   Clear
6:55 PM 71.6 °F - 59.0 °F 64% 30.02 in 10.0 mi SSW 3.5 mph - N/A   Clear
7:15 PM 69.8 °F - 60.8 °F 73% 30.02 in 10.0 mi SSW 3.5 mph - N/A   Clear
7:35 PM 68.0 °F - 59.0 °F 73% 30.02 in 10.0 mi SSW 3.5 mph - N/A   Clear
7:55 PM 66.2 °F - 59.0 °F 78% 30.03 in 10.0 mi SSW 3.5 mph - N/A   Clear
8:15 PM 66.2 °F - 59.0 °F 78% 30.03 in 10.0 mi SW 3.5 mph - N/A   Clear
8:35 PM 66.2 °F - 59.0 °F 78% 30.04 in 10.0 mi SW 3.5 mph - N/A   Clear
8:55 PM 64.4 °F - 59.0 °F 83% 30.04 in 10.0 mi SW 3.5 mph - N/A   Clear
9:15 PM 66.2 °F - 59.0 °F 78% 30.04 in 10.0 mi WSW 4.6 mph - N/A   Clear
9:35 PM 69.8 °F - 60.8 °F 73% 30.04 in 10.0 mi WSW 5.8 mph - N/A   Clear
9:55 PM 69.8 °F - 60.8 °F 73% 30.05 in 10.0 mi WSW 5.8 mph - N/A   Clear
10:15 PM 69.8 °F - 60.8 °F 73% 30.05 in 10.0 mi WSW 8.1 mph - N/A   Clear
10:35 PM 71.6 °F - 60.8 °F 69% 30.05 in 10.0 mi WSW 8.1 mph - N/A   Clear
10:55 PM 69.8 °F - 60.8 °F 73% 30.06 in 10.0 mi WSW 8.1 mph - N/A   Clear
11:15 PM 69.8 °F - 60.8 °F 73% 30.06 in 10.0 mi WSW 8.1 mph - N/A   Clear
11:35 PM 69.8 °F - 60.8 °F 73% 30.06 in 10.0 mi WSW 8.1 mph - N/A   Clear
11:55 PM 69.8 °F - 60.8 °F 73% 30.06 in 10.0 mi WSW 8.1 mph - N/A   Clear